Location: Cosy Dell
(34.2789°N, 117.4537°W)
Time: 21:19:03
(UTC+00:00)

Cosmos 1842 Rocket - Pass Details

Date: 14 July 2020
Orbit: 605 x 634 km, 82.5° (Epoch: 13 August)

Event Time Altitude Azimuth Distance (km) Brightness Sun altitude
Rises 04:53:57 0° 355° (N) 2,865 7.8 -19.4°
Reaches altitude 10° 04:56:10 10° 356° (N) 1,957 6.8 -19.7°
Maximum altitude 05:00:30 78° 83° (E) 622 3.4 -20.3°
Enters shadow 05:01:27 53° 157° (SSE) 745 3.6 -20.4°
